DW0026 Weather Reports


time (UTC)temp
F
wind
direction
speed
knots
gust
knots
rain 1hr
in
rain 24hr
in
rain mn
in
humidity
%
barometer
mb
20210920053005 53 44 0.0 0.0 0.00 0.00 0.00 44 1016.6
20210920051502 54 44 0.0 6.1 0.00 0.00 0.00 42 1016.5
20210920050227 55 51 2.6 5.2 0.00 0.00 0.00 41 1016.1
20210920044734 56 51 2.6 7.8 0.00 0.00 0.00 40 1016.1
20210920043319 56 51 3.5 9.6 0.00 0.00 0.00 39 1016.2
20210920041637 56 53 3.5 8.7 0.00 0.00 0.00 39 1015.8
20210920040104 57 46 1.7 10.4 0.00 0.00 0.00 39 1015.3
20210920034716 57 65 6.1 12.2 0.00 0.00 0.00 38 1014.8
20210920033112 58 48 6.1 13.0 0.00 0.00 0.00 38 1014.4
20210920031619 58 61 7.0 13.0 0.00 0.00 0.00 37 1014.2
20210920030152 59 62 7.8 15.6 0.00 0.00 0.00 37 1014.0
20210920024536 59 44 7.8 15.6 0.00 0.00 0.00 37 1013.6
20210920023039 60 77 7.8 14.8 0.00 0.00 0.00 37 1013.5
20210920021545 60 81 7.0 13.9 0.00 0.00 0.00 37 1013.2
20210920020049 61 53 10.4 18.2 0.00 0.00 0.00 37 1012.8
20210920014533 62 57 10.4 15.6 0.00 0.00 0.00 36 1012.6
20210920013100 63 71 11.3 20.0 0.00 0.00 0.00 36 1012.5
20210920011533 65 77 10.4 15.6 0.00 0.00 0.00 34 1012.2
20210920010032 66 30 9.6 14.8 0.00 0.00 0.00 30 1012.0
20210920004546 67 51 7.0 14.8 0.00 0.00 0.00 29 1011.8
20210920003040 67 54 5.2 13.9 0.00 0.00 0.00 29 1011.5
20210920001537 68 54 9.6 19.1 0.00 0.00 0.00 29 1011.4
20210920000028 69 53 7.8 16.5 0.00 0.00 0.00 28 1011.4
20210919234523 69 59 6.1 13.9 0.00 0.00 0.00 28 1011.3
20210919233018 70 18 7.8 14.8 0.00 0.00 0.00 27 1011.3
20210919231527 70 34 3.5 12.2 0.00 0.00 0.00 27 1011.0
20210919230025 70 12 6.1 13.9 0.00 0.00 0.00 27 1011.2
20210919224544 70 33 3.5 13.0 0.00 0.00 0.00 27 1011.2
20210919223030 70 360 7.0 13.9 0.00 0.00 0.00 26 1011.0
20210919221557 70 5 4.3 14.8 0.00 0.00 0.00 25 1011.0
20210919220014 70 15 5.2 14.8 0.00 0.00 0.00 22 1011.3
20210919214536 70 355 7.8 14.8 0.00 0.00 0.00 23 1011.3
20210919213010 69 9 7.8 13.0 0.00 0.00 0.00 25 1011.2
20210919211520 69 333 5.2 16.5 0.00 0.00 0.00 26 1011.2
20210919210018 69 355 4.3 11.3 0.00 0.00 0.00 26 1011.4
20210919204509 69 5 7.0 17.4 0.00 0.00 0.00 26 1011.3
20210919203002 68 5 5.2 14.8 0.00 0.00 0.00 28 1011.5
20210919201612 68 360 5.2 15.6 0.00 0.00 0.00 29 1011.4
20210919200202 67 5 8.7 15.6 0.00 0.00 0.00 31 1011.4
20210919194608 66 331 9.6 14.8 0.00 0.00 0.00 31 1011.2
20210919193101 66 323 8.7 14.8 0.00 0.00 0.00 32 1011.4
20210919191752 66 360 4.3 13.9 0.00 0.00 0.00 33 1011.5
20210919190141 64 12 5.2 13.9 0.00 0.00 0.00 35 1011.4
20210919184547 65 350 5.2 14.8 0.00 0.00 0.00 35 1011.5
20210919183138 64 5 4.3 13.0 0.00 0.00 0.00 36 1011.4
20210919181711 63 11 9.6 14.8 0.00 0.00 0.00 37 1011.3
20210919180113 63 5 7.0 15.6 0.00 0.00 0.00 37 1011.2
20210919174530 61 342 10.4 14.8 0.00 0.00 0.00 39 1011.0
20210919173034 60 339 9.6 15.6 0.00 0.00 0.00 39 1011.0
20210919171538 60 344 12.2 20.0 0.00 0.00 0.00 40 1010.8
20210919170055 59 355 11.3 19.1 0.00 0.00 0.00 40 1010.7
20210919164555 60 355 9.6 16.5 0.00 0.00 0.00 41 1010.5
20210919163039 60 360 10.4 15.6 0.00 0.00 0.00 42 1010.5
20210919161535 59 351 7.8 17.4 0.00 0.00 0.00 43 1010.4
20210919160029 59 355 7.8 14.8 0.00 0.00 0.00 43 1010.0
20210919154528 58 20 5.2 15.6 0.00 0.00 0.00 44 1010.0
20210919153030 58 18 8.7 15.6 0.00 0.00 0.00 45 1009.5
20210919151505 58 9 9.6 14.8 0.00 0.00 0.00 45 1009.2
20210919150143 59 297 7.0 20.0 0.00 0.00 0.00 44 1009.2
20210919144730 59 294 9.6 20.0 0.00 0.00 0.00 44 1008.5
20210919143117 58 288 10.4 17.4 0.00 0.00 0.00 44 1008.7
20210919141618 59 300 9.6 15.6 0.00 0.00 0.00 43 1008.8
20210919140053 59 296 8.7 20.9 0.00 0.00 0.00 44 1008.7
20210919134607 59 286 6.1 16.5 0.00 0.00 0.00 47 1008.4
20210919133112 59 266 7.8 16.5 0.00 0.00 0.00 47 1008.3
20210919131621 60 252 8.7 17.4 0.00 0.00 0.00 47 1008.0
20210919130050 60 259 6.1 18.2 0.00 0.00 0.00 47 1007.8
20210919124552 60 275 9.6 16.5 0.00 0.00 0.00 48 1007.9
20210919123124 60 275 7.0 15.6 0.00 0.00 0.00 49 1007.8
20210919121622 60 242 7.8 15.6 0.00 0.00 0.00 53 1007.6
20210919120116 61 274 7.0 15.6 0.00 0.00 0.00 54 1007.3
20210919114635 61 273 12.2 20.9 0.00 0.00 0.00 53 1007.1
20210919113047 60 283 9.6 20.0 0.00 0.00 0.00 54 1007.1
20210919111622 61 259 10.4 27.8 0.00 0.00 0.00 54 1007.5
20210919110051 61 280 10.4 20.9 0.00 0.00 0.00 55 1007.2
20210919104605 61 252 7.8 17.4 0.00 0.00 0.00 52 1007.2
20210919103026 61 290 9.6 21.7 0.00 0.00 0.00 51 1007.2
20210919101623 62 244 10.4 21.7 0.00 0.00 0.00 51 1007.2
20210919100034 62 238 8.7 14.8 0.00 0.00 0.00 52 1007.6
20210919094604 62 274 7.0 13.9 0.00 0.00 0.00 53 1007.4
20210919093022 62 250 3.5 8.7 0.00 0.00 0.00 53 1007.3
20210919091534 61 273 5.2 13.0 0.00 0.00 0.00 52 1007.7
20210919090024 60 231 2.6 6.1 0.00 0.00 0.00 52 1007.7
20210919084550 59 227 0.0 0.0 0.00 0.00 0.00 48 1007.7
20210919083015 59 227 0.0 0.0 0.00 0.00 0.00 46 1007.8
20210919081512 59 227 0.0 0.0 0.00 0.00 0.00 46 1007.9
20210919080011 59 227 0.0 0.9 0.00 0.00 0.00 42 1008.1
20210919074517 59 227 0.0 1.7 0.00 0.00 0.00 40 1008.2
20210919073005 59 227 0.0 1.7 0.00 0.00 0.00 38 1008.6
20210919071506 60 227 0.0 0.0 0.00 0.00 0.00 37 1008.8
20210919064649 60 227 0.0 6.1 0.00 0.00 0.00 36 1009.6
20210919063250 59 227 0.9 7.0 0.00 0.00 0.00 36 1009.4
20210919061711 59 215 0.0 3.5 0.00 0.00 0.00 37 1009.4
20210919060145 59 214 0.0 1.7 0.00 0.00 0.00 38 1009.4
20210919054650 59 214 0.0 0.0 0.00 0.00 0.00 38 1009.2